GW4674 Weather Reports


Display with metric or nautical units.
time (UTC)temp
F
wind
direction
speed
MPH
gust
MPH
rain 1hr
in
rain 24hr
in
rain mn
in
humidity
%
barometer
mb
20260504002318 52 241 2.0 2.0 0.00 0.00 0.00 35 1017.0
20260504001816 52 162 0.0 2.0 0.00 0.00 0.00 34 1016.9
20260504001313 52 272 0.0 2.0 0.00 0.00 0.00 34 1016.7
20260504000810 53 209 1.0 2.0 0.00 0.00 0.00 35 1016.7
20260504000307 53 222 2.0 3.0 0.00 0.00 0.00 35 1016.7
20260503235804 53 229 2.0 2.0 0.00 0.00 0.00 34 1016.6
20260503235301 53 253 1.0 2.0 0.00 0.00 0.00 33 1016.6
20260503234758 53 230 0.0 2.0 0.00 0.00 0.00 35 1016.5
20260503234256 53 268 2.0 2.0 0.00 0.00 0.00 35 1016.4
20260503233754 53 254 2.0 2.0 0.00 0.00 0.00 35 1016.6
20260503233249 53 248 0.0 3.0 0.00 0.00 0.00 34 1016.3
20260503232746 53 295 0.0 3.0 0.00 0.00 0.00 32 1016.1
20260503232244 54 232 2.0 3.0 0.00 0.00 0.00 33 1016.1
20260503231742 54 202 3.0 3.0 0.00 0.00 0.00 31 1016.1
20260503231238 54 215 1.0 4.0 0.00 0.00 0.00 32 1016.1
20260503230734 54 308 0.0 4.0 0.00 0.00 0.00 29 1016.0
20260503230232 54 336 0.0 5.0 0.00 0.00 0.00 31 1016.1
20260503225729 54 204 2.0 3.0 0.00 0.00 0.00 30 1015.9
20260503225229 55 232 0.0 4.0 0.00 0.00 0.00 30 1015.9
20260503224727 55 260 3.0 6.0 0.00 0.00 0.00 30 1015.9
20260503224225 55 285 0.0 4.0 0.00 0.00 0.00 29 1015.8
20260503223722 55 24 3.0 5.0 0.00 0.00 0.00 31 1015.8
20260503223219 55 144 2.0 7.0 0.00 0.00 0.00 29 1015.8
20260503222715 56 230 5.0 5.0 0.00 0.00 0.00 30 1015.9
20260503222213 56 295 1.0 7.0 0.00 0.00 0.00 28 1015.9
20260503221711 56 296 2.0 6.0 0.00 0.00 0.00 29 1015.8
20260503221209 56 334 2.0 4.0 0.00 0.00 0.00 29 1015.9
20260503220705 56 244 4.0 4.0 0.00 0.00 0.00 30 1015.8
20260503220201 57 262 2.0 4.0 0.00 0.00 0.00 28 1015.7
20260503215658 58 204 1.0 5.0 0.00 0.00 0.00 30 1015.7
20260503215155 56 326 2.0 8.0 0.00 0.00 0.00 32 1015.7
20260503214654 57 164 2.0 6.0 0.00 0.00 0.00 30 1015.9
20260503214149 58 312 4.0 8.0 0.00 0.00 0.00 29 1015.8
20260503213644 57 205 2.0 5.0 0.00 0.00 0.00 29 1015.8
20260503213140 57 259 4.0 8.0 0.00 0.00 0.00 29 1015.8
20260503212638 57 252 4.0 7.0 0.00 0.00 0.00 29 1015.7
20260503212135 58 301 2.0 4.0 0.00 0.00 0.00 31 1015.7
20260503211632 60 238 3.0 5.0 0.00 0.00 0.00 30 1015.4
20260503211127 59 234 2.0 3.0 0.00 0.00 0.00 30 1015.7
20260503210623 59 295 3.0 8.0 0.00 0.00 0.00 30 1015.8
20260503210120 58 313 2.0 5.0 0.00 0.00 0.00 30 1015.7
20260503205616 58 245 4.0 6.0 0.00 0.00 0.00 31 1016.0
20260503205112 57 206 2.0 9.0 0.00 0.00 0.00 32 1016.0
20260503204609 58 347 4.0 6.0 0.00 0.00 0.00 31 1015.9
20260503204107 57 263 2.0 7.0 0.00 0.00 0.00 31 1015.8
20260503203603 55 221 4.0 9.0 0.00 0.00 0.00 35 1015.8
20260503203101 56 305 5.0 11.0 0.00 0.00 0.00 32 1015.6
20260503202559 56 217 6.0 7.0 0.00 0.00 0.00 33 1015.7
20260503202057 57 357 2.0 4.0 0.00 0.00 0.00 32 1015.6
20260503201554 57 228 2.0 7.0 0.00 0.00 0.00 33 1015.8
20260503201051 58 185 2.0 12.0 0.00 0.00 0.00 31 1015.8
20260503200547 56 317 3.0 5.0 0.00 0.00 0.00 34 1015.8
20260503200044 56 116 0.0 6.0 0.00 0.00 0.00 35 1015.7
20260503195541 55 319 3.0 6.0 0.00 0.00 0.00 38 1015.7
20260503195038 56 318 3.0 12.0 0.00 0.00 0.00 34 1016.0
20260503194535 55 303 3.0 6.0 0.00 0.00 0.00 33 1016.0
20260503194035 55 262 3.0 6.0 0.00 0.00 0.00 35 1016.0
20260503193532 53 298 0.0 5.0 0.00 0.00 0.00 35 1016.1
20260503193027 55 285 3.0 7.0 0.00 0.00 0.00 35 1016.1
20260503192523 54 24 4.0 6.0 0.00 0.00 0.00 35 1016.0
20260503192019 56 233 7.0 12.0 0.00 0.00 0.00 35 1016.3
20260503191516 56 300 2.0 11.0 0.00 0.00 0.00 33 1016.2
20260503191013 56 339 5.0 9.0 0.00 0.00 0.00 36 1016.3
20260503190510 56 268 4.0 8.0 0.00 0.00 0.00 33 1016.0
20260503190008 56 258 5.0 11.0 0.00 0.00 0.00 33 1016.2
20260503185504 57 246 3.0 8.0 0.00 0.00 0.00 36 1016.0
20260503185003 56 296 3.0 10.0 0.00 0.00 0.00 34 1016.2
20260503184500 54 301 5.0 8.0 0.00 0.00 0.00 34 1016.1
20260503183956 56 189 2.0 9.0 0.00 0.00 0.00 37 1016.2
20260503183453 55 240 4.0 7.0 0.00 0.00 0.00 36 1016.3
20260503182950 53 301 6.0 8.0 0.00 0.00 0.00 38 1016.3
20260503182449 52 335 4.0 10.0 0.00 0.00 0.00 39 1016.2
20260503181946 54 246 4.0 9.0 0.00 0.00 0.00 36 1016.3
20260503181443 53 315 3.0 10.0 0.00 0.00 0.00 36 1016.3
20260503180939 54 284 3.0 7.0 0.00 0.00 0.00 36 1016.1
20260503180437 54 327 5.0 8.0 0.00 0.00 0.00 35 1016.4
20260503175934 52 288 4.0 6.0 0.00 0.00 0.00 38 1016.1
20260503175432 52 326 3.0 6.0 0.00 0.00 0.00 36 1016.2
20260503174927 52 250 5.0 11.0 0.00 0.00 0.00 36 1016.2
20260503174426 54 306 1.0 8.0 0.00 0.00 0.00 35 1016.2
20260503173926 54 8 2.0 7.0 0.00 0.00 0.00 39 1016.4
20260503173422 52 65 2.0 7.0 0.00 0.00 0.00 39 1016.2
20260503172919 52 230 2.0 6.0 0.00 0.00 0.00 35 1016.3
20260503172417 55 300 2.0 6.0 0.00 0.00 0.00 34 1016.4
20260503171912 52 83 3.0 10.0 0.00 0.00 0.00 35 1016.1
20260503171409 52 333 7.0 10.0 0.00 0.00 0.00 34 1016.0
20260503170907 55 293 2.0 10.0 0.00 0.00 0.00 37 1016.5
20260503170403 51 311 5.0 6.0 0.00 0.00 0.00 35 1016.2
20260503150755 51 207 2.0 6.0 0.00 0.00 0.00 48 1016.8
20260503150251 49 2 3.0 4.0 0.00 0.00 0.00 51 1016.8
20260503140216 46 68 2.0 9.0 0.00 0.00 0.00 56 1016.8
20260503131145 45 280 2.0 8.0 0.00 0.00 0.00 59 1016.8
20260503130643 46 207 0.0 8.0 0.00 0.00 0.00 58 1016.6
20260503130140 45 228 4.0 6.0 0.00 0.00 0.00 58 1016.9
20260503120106 42 279 1.0 5.0 0.00 0.00 0.00 66 1016.8
20260503110533 41 303 3.0 4.0 0.00 0.00 0.00 68 1016.7
20260503090420 41 245 2.0 4.0 0.00 0.00 0.00 64 1015.9
20260503081346 41 304 2.0 5.0 0.00 0.00 0.00 63 1016.2
20260503080843 41 277 3.0 7.0 0.00 0.00 0.00 63 1016.2
20260503080340 41 88 2.0 5.0 0.00 0.00 0.00 62 1016.2
20260503072812 42 297 2.0 4.0 0.00 0.00 0.00 61 1016.1
20260503072308 42 270 1.0 5.0 0.00 0.00 0.00 61 1016.3
20260503071804 42 301 2.0 4.0 0.00 0.00 0.00 61 1016.1
20260503071302 43 183 3.0 4.0 0.00 0.00 0.00 61 1016.3
20260503070757 43 304 3.0 5.0 0.00 0.00 0.00 59 1016.3
20260503070255 43 231 1.0 3.0 0.00 0.00 0.00 61 1016.1
20260503060220 44 284 2.0 4.0 0.00 0.00 0.00 56 1016.6
20260503054707 44 310 1.0 4.0 0.00 0.00 0.00 57 1016.9
20260503054204 44 287 4.0 4.0 0.00 0.00 0.00 59 1017.0
20260503053702 44 233 0.0 4.0 0.00 0.00 0.00 58 1016.9
20260503053201 44 173 1.0 3.0 0.00 0.00 0.00 57 1017.0
20260503052657 44 81 3.0 5.0 0.00 0.00 0.00 56 1017.0
20260503052153 44 332 2.0 3.0 0.00 0.00 0.00 56 1017.0
20260503051648 45 40 3.0 6.0 0.00 0.00 0.00 56 1016.9
20260503051146 45 19 3.0 7.0 0.00 0.00 0.00 55 1017.1
20260503050643 46 320 1.0 4.0 0.00 0.00 0.00 53 1017.2
20260503050139 46 355 2.0 5.0 0.00 0.00 0.00 52 1017.3
20260503045637 46 260 3.0 4.0 0.00 0.00 0.00 53 1017.2
20260503045134 46 106 1.0 5.0 0.00 0.00 0.00 53 1017.5
20260503044631 46 50 1.0 4.0 0.00 0.00 0.00 53 1017.3
20260503044128 46 268 2.0 4.0 0.00 0.00 0.00 52 1017.3
20260503043625 46 298 2.0 5.0 0.00 0.00 0.00 53 1017.4
20260503043122 45 221 4.0 4.0 0.00 0.00 0.00 56 1017.5
20260503042618 46 222 1.0 2.0 0.00 0.00 0.00 55 1017.5
20260503042114 46 138 2.0 4.0 0.00 0.00 0.00 52 1017.3
20260503041611 46 251 1.0 3.0 0.00 0.00 0.00 54 1017.4
20260503041109 46 251 1.0 3.0 0.00 0.00 0.00 54 1017.6
20260503040606 46 255 0.0 5.0 0.00 0.00 0.00 51 1017.4
20260503040103 47 300 1.0 2.0 0.00 0.00 0.00 52 1017.5
20260503035600 47 355 1.0 3.0 0.00 0.02 0.02 51 1017.3
20260503035058 47 222 2.0 4.0 0.00 0.02 0.02 51 1017.5
20260503034554 47 194 4.0 4.0 0.00 0.02 0.02 51 1017.3
20260503034052 47 224 1.0 4.0 0.00 0.02 0.02 49 1017.3
20260503033549 47 290 2.0 5.0 0.00 0.02 0.02 49 1017.4
20260503033047 47 283 3.0 5.0 0.00 0.02 0.02 49 1017.3
20260503032545 47 231 2.0 4.0 0.00 0.02 0.02 53 1017.2
20260503032042 47 188 0.0 4.0 0.00 0.02 0.02 51 1017.4
20260503031540 47 343 2.0 3.0 0.00 0.02 0.02 54 1017.2
20260503031037 48 352 2.0 5.0 0.00 0.02 0.02 52 1017.4
20260503030533 48 226 3.0 6.0 0.00 0.02 0.02 51 1017.4
20260503030030 48 115 0.0 4.0 0.00 0.02 0.02 54 1017.4
20260503025526 48 318 2.0 4.0 0.00 0.02 0.02 54 1017.1
20260503025025 47 189 2.0 2.0 0.00 0.02 0.02 56 1017.4
20260503024520 48 289 0.0 3.0 0.00 0.02 0.02 54 1017.1
20260503024018 48 264 1.0 4.0 0.00 0.02 0.02 50 1017.3
20260503023515 48 324 3.0 4.0 0.00 0.02 0.02 50 1017.4
20260503023012 48 7 0.0 2.0 0.00 0.02 0.02 52 1017.3
20260503022508 48 304 0.0 3.0 0.00 0.02 0.02 53 1017.5
20260503022003 48 301 0.0 2.0 0.00 0.02 0.02 50 1017.6
20260503021500 48 300 0.0 2.0 0.00 0.02 0.02 51 1017.5
20260503020957 48 166 1.0 2.0 0.00 0.02 0.02 53 1017.6
20260503020454 49 133 0.0 2.0 0.00 0.02 0.02 50 1017.9
20260503015950 49 168 1.0 2.0 0.00 0.02 0.02 50 1017.8
20260503015447 49 172 1.0 2.0 0.00 0.02 0.02 51 1017.5
20260503014944 49 211 1.0 3.0 0.00 0.02 0.02 50 1017.6
20260503014441 49 296 0.0 4.0 0.00 0.02 0.02 50 1017.5
20260503013939 49 296 2.0 3.0 0.00 0.02 0.02 49 1017.4
20260503013436 49 39 3.0 4.0 0.00 0.02 0.02 48 1017.4
20260503012933 50 304 0.0 4.0 0.00 0.02 0.02 48 1017.6
20260503012431 49 61 2.0 2.0 0.00 0.02 0.02 51 1017.5
20260503011926 50 345 2.0 4.0 0.00 0.02 0.02 49 1017.5
20260503011423 50 8 1.0 2.0 0.00 0.02 0.02 49 1017.4
20260503010921 50 280 0.0 3.0 0.00 0.02 0.02 51 1017.5
20260503010418 50 9 2.0 4.0 0.00 0.02 0.02 48 1017.5
20260503005914 50 148 2.0 3.0 0.00 0.02 0.02 49 1017.4
20260503005412 50 342 2.0 4.0 0.00 0.02 0.02 51 1017.3
20260503004908 50 305 1.0 4.0 0.00 0.02 0.02 51 1017.4
20260503004405 51 300 0.0 4.0 0.00 0.02 0.02 51 1017.2
20260503003903 51 18 1.0 4.0 0.00 0.02 0.02 52 1017.2
20260503003359 51 279 0.0 4.0 0.00 0.02 0.02 53 1017.2
20260503002856 51 185 1.0 2.0 0.00 0.02 0.02 57 1017.2